Preview of NWS' New Version of Forecast
This preview is not operational and should not be used for support decisions.

Regional Weather Roundup (RWR)

Issued by National Weather Service (NWS)

                            
000
ASCA42 TJSJ 172010
RWRPR 
PUERTO RICO/U.S. VIRGIN ISLANDS HOURLY WEATHER ROUNDUP
NATIONAL WEATHER SERVICE SAN JUAN PR
400 PM AST FRI MAY 17 2019

PRZ001>002-007>008-010-172100-
PUERTO RICO
  
CITY           SKY/WX    TMP DP  RH WIND       PRES   REMARKS
SAN JUAN LMM   MOSUNNY   86  73  66 NE22      29.94F HX  93           
AGUADILLA      MOSUNNY   84  73  70 E14       29.96F HX  91           
CEIBA          SUNNY     88  73  62 E12       29.96F HX  96           
$$

VIZ001>002-172100-
U.S. VIRGIN ISLANDS
  
CITY           SKY/WX    TMP DP  RH WIND       PRES   REMARKS
CHARLOTTE AMA  MOSUNNY   84  73  70 SE12      29.95F HX  91           
$$

HOURLY WEATHER ROUNDUP FOR THE NEWS MEDIA
  
CITY           SKY/WX    TMP DP  RH WIND       PRES   REMARKS
ORLANDO        FAIR      86  57  37 NE10G22   30.01F                  
NEW YORK       PTSUNNY   68  60  75 S9        29.73F                  
NEWARK         PTSUNNY   78  56  46 SW18      29.71F                  
CHICAGO        CLOUDY    49  39  68 NE15      29.93R                  
HARTFORD       PTSUNNY   62  55  77 SW7G21    29.74S                  
BOSTON         LGT RAIN  61  57  87 NW3       29.73  FOG              
DALLAS         PTSUNNY   86  66  51 SE12G23   29.80F                  
PHILADELPHIA   FAIR      81  57  43 SW14      29.74S                  
LOS ANGELES    MOSUNNY   68  48  48 W18       30.02S                  
WASHINGTON DC  PTSUNNY   81  61  50 NW12      29.80R